Weather History for KCPW - May, 2013

Change the Weather History Date:

Monday, May 27, 2013

  Actual Average (KALS) Record (KALS)
Temperature  
Mean Temperature 38 °F 54 °F  
Max Temperature 44 °F 73 °F 84 °F (1951)
Min Temperature 32 °F 36 °F 25 °F (1950)
Degree Days  
Heating Degree Days 27 11  
Month to date heating degree days 387  
Since 1 July heating degree days 8387  
Cooling Degree Days 0 0  
Month to date cooling degree days 0  
Year to date cooling degree days 0  
Moisture  
Dew Point 10 °F    
Average Humidity 31    
Maximum Humidity 36    
Minimum Humidity 26    
Precipitation  
Precipitation 0.00 in 0.02 in 0.68 in (1970)
Month to date precipitation 0.51  
Year to date precipitation 2.15  
Snow  
Snow 0.00 in 0.00 in T in (1992)
Month to date snowfall 0.9  
Since 1 July snowfall 27.6  
Snow Depth -    
Sea Level Pressure  
Sea Level Pressure 30.30 in    
Wind  
Wind Speed 19 mph (SW)    
Max Wind Speed 26 mph    
Max Gust Speed 38 mph    
Visibility 10 miles    
Events      
T = Trace of Precipitation, MM = Missing Value Source: NWS Daily Summary

Daily Weather History Graph

Daily Weather History Graph

Search for Another Location

Airport or City:

Trip Planner

Search our weather history database for the weather conditions in past years. The results will help you decide how hot, cold, wet, or windy it might be!

Date:

Astronomy

May. 27, 2013 Rise Set
Actual Time 5:49 AM MDT 8:19 PM MDT
Civil Twilight 5:19 AM MDT 8:49 PM MDT
Nautical Twilight 4:42 AM MDT 9:27 PM MDT
Astronomical Twilight 4:00 AM MDT 10:08 PM MDT
Moon 11:02 PM MDT (5/27) 8:29 AM MDT (5/27)
Length of Visible Light 15h 29m
Length of Day
14h 29m
Waning Gibbous, 90% of the Moon is Illuminated
May 27
Waning Gibbous
May 31
Last Quarter
Jun 8
New
Jun 16
First Quarter
Jun 23
Full

Hourly Weather History & Observations

Time (MDT) Temp. Windchill Dew Point Humidity Pressure Visibility Wind Dir Wind Speed Gust Speed Precip Events Conditions
12:03 AM 41.0 °F 31.4 °F 10.4 °F 29% 30.37 in 10.0 mi SW 21.9 mph 29.9 mph N/A   Clear
12:23 AM 41.0 °F 30.7 °F 8.6 °F 26% 30.37 in 10.0 mi SW 25.3 mph 32.2 mph N/A   Clear
12:43 AM 39.2 °F 28.7 °F 8.6 °F 28% 30.36 in 10.0 mi SW 23.0 mph 29.9 mph N/A   Clear
1:03 AM 39.2 °F 28.7 °F 8.6 °F 28% 30.36 in 10.0 mi SW 23.0 mph 31.1 mph N/A   Clear
1:23 AM 39.2 °F 28.5 °F 6.8 °F 26% 30.35 in 10.0 mi SW 24.2 mph 35.7 mph N/A   Clear
1:43 AM 37.4 °F 25.6 °F 6.8 °F 28% 30.35 in 10.0 mi SW 26.5 mph 36.8 mph N/A   Clear
2:03 AM 37.4 °F 25.6 °F 6.8 °F 28% 30.34 in 10.0 mi WSW 26.5 mph 36.8 mph N/A   Clear
2:23 AM 37.4 °F 25.6 °F 5.0 °F 26% 30.34 in 10.0 mi WSW 26.5 mph 38.0 mph N/A   Clear
2:43 AM 37.4 °F 26.1 °F 8.6 °F 30% 30.34 in 10.0 mi SW 24.2 mph 32.2 mph N/A   Clear
3:03 AM 35.6 °F 24.5 °F 8.6 °F 33% 30.34 in 10.0 mi SW 20.7 mph 29.9 mph N/A   Clear
3:23 AM 35.6 °F 24.8 °F 8.6 °F 33% 30.34 in 10.0 mi SW 19.6 mph 28.8 mph N/A   Clear
3:43 AM 35.6 °F 24.8 °F 8.6 °F 33% 30.33 in 10.0 mi SW 19.6 mph 27.6 mph N/A   Clear
4:03 AM 33.8 °F 22.5 °F 6.8 °F 32% 30.33 in 10.0 mi SW 19.6 mph 27.6 mph N/A   Clear
4:23 AM 33.8 °F 22.5 °F 6.8 °F 32% 30.33 in 10.0 mi SW 19.6 mph - N/A   Clear
4:43 AM 33.8 °F 22.2 °F 6.8 °F 32% 30.32 in 10.0 mi SW 20.7 mph - N/A   Clear
5:03 AM 33.8 °F 22.8 °F 5.0 °F 30% 30.32 in 10.0 mi SW 18.4 mph - N/A   Clear
5:23 AM 32.0 °F 20.1 °F 5.0 °F 32% 30.32 in 10.0 mi SW 19.6 mph - N/A   Clear
5:43 AM 32.0 °F 21.2 °F 6.8 °F 35% 30.32 in 10.0 mi SW 16.1 mph - N/A   Clear
6:03 AM 32.0 °F 21.2 °F 6.8 °F 35% 30.32 in 10.0 mi SW 16.1 mph 21.9 mph N/A   Clear
6:23 AM 32.0 °F 20.8 °F 6.8 °F 35% 30.32 in 10.0 mi SW 17.3 mph - N/A   Clear
6:43 AM 32.0 °F 21.2 °F 6.8 °F 35% 30.31 in 10.0 mi SW 16.1 mph 23.0 mph N/A   Clear
7:03 AM 32.0 °F 21.2 °F 6.8 °F 35% 30.32 in 10.0 mi SW 16.1 mph 20.7 mph N/A   Clear
7:23 AM 32.0 °F 20.8 °F 6.8 °F 35% 30.32 in 10.0 mi SW 17.3 mph 20.7 mph N/A   Clear
7:43 AM 32.0 °F 22.1 °F 6.8 °F 35% 30.32 in 10.0 mi SW 13.8 mph 18.4 mph N/A   Clear
8:03 AM 32.0 °F 22.1 °F 6.8 °F 35% 30.32 in 10.0 mi SW 13.8 mph - N/A   Clear
8:23 AM 35.6 °F 26.2 °F 6.8 °F 30% 30.32 in 10.0 mi SW 15.0 mph - N/A   Clear
8:43 AM 37.4 °F 29.8 °F 8.6 °F 30% 30.32 in 10.0 mi SW 11.5 mph 16.1 mph N/A   Clear
9:03 AM 37.4 °F 29.3 °F 10.4 °F 33% 30.32 in 10.0 mi SW 12.7 mph 17.3 mph N/A   Clear
9:23 AM 37.4 °F 30.3 °F 10.4 °F 33% 30.32 in 10.0 mi SW 10.4 mph - N/A   Clear
9:43 AM 39.2 °F 33.0 °F 12.2 °F 33% 30.33 in 10.0 mi SSW 9.2 mph 17.3 mph N/A   Clear
10:03 AM 41.0 °F 34.7 °F 12.2 °F 31% 30.32 in 10.0 mi SSW 10.4 mph 16.1 mph N/A   Clear
10:23 AM 41.0 °F 34.3 °F 14.0 °F 33% 30.32 in 10.0 mi SSW 11.5 mph 20.7 mph N/A   Clear
10:43 AM 41.0 °F 34.7 °F 14.0 °F 33% 30.32 in 10.0 mi SW 10.4 mph 17.3 mph N/A   Clear
11:03 AM 42.8 °F 36.2 °F 14.0 °F 31% 30.32 in 10.0 mi SSW 12.7 mph 21.9 mph N/A   Clear
11:23 AM 44.6 °F 39.7 °F 14.0 °F 29% 30.32 in 10.0 mi SW 9.2 mph 24.2 mph N/A   Clear
11:43 AM 44.6 °F 38.8 °F 15.8 °F 31% 30.32 in 10.0 mi SW 11.5 mph 23.0 mph N/A   Clear
12:03 PM 42.8 °F 34.8 °F 14.0 °F 31% 30.32 in 10.0 mi SW 17.3 mph 32.2 mph N/A   Clear
12:23 PM 42.8 °F 34.0 °F 14.0 °F 31% 30.32 in 10.0 mi SW 20.7 mph 31.1 mph N/A   Clear
12:43 PM 42.8 °F 34.8 °F 12.2 °F 29% 30.32 in 10.0 mi SSW 17.3 mph 31.1 mph N/A   Clear
1:03 PM 42.8 °F 33.3 °F 14.0 °F 31% 30.32 in 10.0 mi SSW 24.2 mph 35.7 mph N/A   Clear
1:23 PM 42.8 °F 34.5 °F 14.0 °F 31% 30.32 in 10.0 mi SSW 18.4 mph 27.6 mph N/A   Clear
1:43 PM 42.8 °F 36.6 °F 14.0 °F 31% 30.31 in 10.0 mi SSW 11.5 mph 32.2 mph N/A   Clear
2:03 PM 42.8 °F 35.1 °F 14.0 °F 31% 30.31 in 10.0 mi SW 16.1 mph 28.8 mph N/A   Clear
2:23 PM 44.6 °F 37.8 °F 14.0 °F 29% 30.31 in 10.0 mi South 15.0 mph 27.6 mph N/A   Clear
2:43 PM 44.6 °F 37.8 °F 14.0 °F 29% 30.29 in 10.0 mi SSW 15.0 mph 33.4 mph N/A   Clear
3:03 PM 42.8 °F 36.6 °F 14.0 °F 31% 30.29 in 10.0 mi South 11.5 mph 29.9 mph N/A   Clear
3:23 PM 44.6 °F 38.1 °F 12.2 °F 27% 30.29 in 10.0 mi South 13.8 mph 32.2 mph N/A   Clear
3:43 PM 42.8 °F 35.8 °F 12.2 °F 29% 30.28 in 10.0 mi SSW 13.8 mph 31.1 mph N/A   Clear
4:03 PM 44.6 °F 38.1 °F 12.2 °F 27% 30.28 in 10.0 mi SSW 13.8 mph 31.1 mph N/A   Clear
4:23 PM 42.8 °F 35.4 °F 12.2 °F 29% 30.27 in 10.0 mi SSW 15.0 mph 32.2 mph N/A   Clear
4:43 PM 44.6 °F 38.1 °F 12.2 °F 27% 30.27 in 10.0 mi SSW 13.8 mph 31.1 mph N/A   Clear
5:03 PM 44.6 °F 37.2 °F 12.2 °F 27% 30.27 in 10.0 mi South 17.3 mph 27.6 mph N/A   Clear
5:23 PM 42.8 °F 36.2 °F 12.2 °F 29% 30.27 in 10.0 mi South 12.7 mph 27.6 mph N/A   Clear
5:43 PM 44.6 °F 36.4 °F 12.2 °F 27% 30.26 in 10.0 mi SW 20.7 mph 36.8 mph N/A   Clear
6:03 PM 42.8 °F 34.8 °F 12.2 °F 29% 30.26 in 10.0 mi SSW 17.3 mph 32.2 mph N/A   Clear
6:23 PM 42.8 °F 35.1 °F 12.2 °F 29% 30.26 in 10.0 mi SSW 16.1 mph 32.2 mph N/A   Clear
6:43 PM 42.8 °F 33.8 °F 12.2 °F 29% 30.25 in 10.0 mi SW 21.9 mph 36.8 mph N/A   Clear
7:03 PM 41.0 °F 32.2 °F 12.2 °F 31% 30.24 in 10.0 mi SW 18.4 mph 31.1 mph N/A   Clear
7:23 PM 42.8 °F 33.3 °F 12.2 °F 29% 30.25 in 10.0 mi SW 24.2 mph 33.4 mph N/A   Clear
7:43 PM 41.0 °F 30.7 °F 12.2 °F 31% 30.25 in 10.0 mi SW 25.3 mph 31.1 mph N/A   Clear
8:03 PM 41.0 °F 31.6 °F 12.2 °F 31% 30.24 in 10.0 mi SW 20.7 mph 32.2 mph N/A   Clear
8:23 PM 39.2 °F 29.3 °F 12.2 °F 33% 30.24 in 10.0 mi SW 20.7 mph 32.2 mph N/A   Clear
8:43 PM 37.4 °F 27.5 °F 12.2 °F 36% 30.25 in 10.0 mi SW 18.4 mph 31.1 mph N/A   Clear
9:03 PM 37.4 °F 27.2 °F 10.4 °F 33% 30.25 in 10.0 mi SW 19.6 mph 26.5 mph N/A   Clear
9:23 PM 37.4 °F 27.5 °F 10.4 °F 33% 30.26 in 10.0 mi SW 18.4 mph 27.6 mph N/A   Clear
9:43 PM 37.4 °F 27.5 °F 10.4 °F 33% 30.27 in 10.0 mi SW 18.4 mph 24.2 mph N/A   Clear
10:03 PM 37.4 °F 27.5 °F 10.4 °F 33% 30.27 in 10.0 mi SW 18.4 mph 26.5 mph N/A   Clear
10:23 PM 37.4 °F 27.5 °F 10.4 °F 33% 30.27 in 10.0 mi SW 18.4 mph 27.6 mph N/A   Clear
10:43 PM 37.4 °F 27.5 °F 10.4 °F 33% 30.28 in 10.0 mi SW 18.4 mph 25.3 mph N/A   Clear
11:03 PM 37.4 °F 26.9 °F 10.4 °F 33% 30.27 in 10.0 mi SW 20.7 mph 25.3 mph N/A   Clear
11:23 PM 35.6 °F 25.5 °F 10.4 °F 35% 30.27 in 10.0 mi SW 17.3 mph - N/A   Clear
11:43 PM 35.6 °F 24.8 °F 10.4 °F 35% 30.27 in 10.0 mi SW 19.6 mph 25.3 mph N/A   Clear